Location: ??????
(56.0120°N, 39.1740°E)
Time: 11:33:25
(UTC+00:00)

ARGOS Delta rocket - Pass Details

Date: 14 April 2026
Orbit: 630 x 826 km, 96.5° (Epoch: 10 May)

Event Time Altitude Azimuth Distance (km) Brightness Sun altitude
Rises 22:07:27 0° 9° (N) 2,940 8.5 -23.7°
Reaches altitude 10° 22:09:43 10° 2° (N) 2,032 7.3 -23.6°
Maximum altitude 22:13:52 42° 292° (WNW) 920 4.4 -23.5°
Enters shadow 22:14:24 40° 273° (W) 950 4.3 -23.5°
